Home > Weather > Tokyo > Past weeks

Flag for Japan Weather for the Past 2 Weeks in Tokyo, Japan

Now
72 °F

Mild.


Feels Like: 77 °F
Forecast: 60 / 76 °F
Wind: 8 mph from Southwest

Location: Tokyo

Current Time: May 4, 2016 at 9:00:55 PM

Latest Report: May 4, 2016 at 7:00 PM


Visibility: N/A

Pressure: 29.62 "Hg

Humidity: 34%

Dew Point: 42 °F

Location of TokyoLocation

Historic Weather in Tokyo — Graph

°F

Tokyo Temperature Yesterday

Maximum temperature yesterday: 70 °F (at 8:00 AM)
Minimum temperature yesterday: 63 °F (at 5:00 AM)
Average temperature yesterday: 66 °F

High & Low Weather Summary for the Past Weeks

 TemperatureHumidityPressure
High79 °F (May 4, 4:00 PM)100% (Apr 21, 11:00 PM)30.33 "Hg (Apr 21, 11:00 PM)
Low51 °F (Apr 20, 5:00 AM)23% (May 4, 4:00 PM)29.32 "Hg (Apr 28, 6:00 PM)
Average62 °F70%29.90 "Hg
* Reported Apr 19 8:00 PM — May 4 7:00 PM, Tokyo, Weather by CustomWeather, © 2016

Note: Actual official high and low records may vary slightly from our data, if they occured in-between our weather recording intervals... More about our weather records

Advertising

Tokyo Weather History for the Previous 24 Hours

Scroll right to see more
 ConditionsComfort  
Time TempWeatherWind HumidityBarometerVisibility
7:00 PM
Wed, May 4
72 °FMild.8 mph34%29.62 "HgN/A
5:00 PM77 °FMild.10 mph25%29.54 "HgN/A
4:00 PM79 °FPleasantly warm.13 mph23%29.50 "HgN/A
11:00 AM78 °FWarm.17 mph44%29.56 "HgN/A
10:00 AM75 °FMild.17 mph55%29.57 "HgN/A
9:00 AM71 °FScattered clouds.16 mph91%29.59 "Hg12 mi
8:00 AM67 °FMild.16 mph98%29.59 "HgN/A
5:00 AM69 °FMild.21 mph80%29.69 "HgN/A
4:00 AM68 °FMild.20 mph85%29.72 "HgN/A
3:00 AM68 °FSprinkles. Overcast.20 mph82%29.74 "Hg9 mi
2:00 AM68 °FMild.14 mph83%29.78 "HgN/A
1:00 AM67 °FMild.20 mph83%29.83 "HgN/A
12:00 AM67 °FMild.16 mph81%29.88 "HgN/A
11:00 PM
Tue, May 3
67 °FMild.18 mph79%29.92 "HgN/A
10:00 PM67 °FMild.17 mph78%29.93 "HgN/A
9:00 PM68 °FOvercast.14 mph77%29.96 "Hg9 mi
Weather by CustomWeather, © 2016

See weather overviewHow to use our weather pages